K8JWL-13 Weather Reports


Display with metric or nautical units.
time (UTC)temp
F
wind
direction
speed
MPH
gust
MPH
rain 1hr
in
rain 24hr
in
rain mn
in
humidity
%
barometer
mb
20260902162024 87 285 4.0 0.0 185.39 0.00 0.00 60 1018.5
20260902161524 86 132 0.0 0.0 185.39 0.00 0.00 62 1018.5
20260902161024 86 194 2.0 0.0 185.39 0.00 0.00 62 1018.5
20260902160524 86 267 6.0 0.0 185.39 0.00 0.00 62 1018.5
20260902160024 86 208 1.0 0.0 185.39 0.00 0.00 64 1018.5
20260902155028 86 318 6.0 0.0 185.39 0.00 0.00 65 1018.5
20260902154524 85 242 1.0 0.0 185.39 0.00 0.00 65 1018.6
20260902152524 84 346 0.0 0.0 185.39 0.00 0.00 67 1018.8
20260902151024 83 225 4.0 0.0 185.39 0.00 0.00 68 1018.6
20260902144524 82 256 0.0 0.0 185.39 0.00 0.00 72 1018.6
20260902143523 81 256 0.0 0.0 185.39 0.00 0.00 72 1018.5
20260902143024 81 256 0.0 0.0 185.39 0.00 0.00 73 1018.5
20260902142524 81 256 0.0 0.0 185.39 0.00 0.00 73 1018.4
20260902142024 80 256 0.0 0.0 185.39 0.00 0.00 74 1018.5
20260902141524 80 256 0.0 0.0 185.39 0.00 0.00 75 1018.5
20260902124554 75 256 0.0 0.0 185.39 0.00 0.00 85 1018.2
20260902124523 75 256 0.0 0.0 185.39 0.00 0.00 85 1018.2
20260902123024 74 256 0.0 0.0 185.39 0.00 0.00 86 1018.1
20260902122024 74 256 0.0 0.0 185.39 0.00 0.00 87 1018.2
20260902115524 73 256 0.0 0.0 185.39 0.00 0.00 87 1018.2
20260902113023 73 256 0.0 0.0 185.39 0.00 0.00 87 1018.0
20260902112025 73 256 0.0 0.0 185.39 0.00 0.00 87 1018.0
20260902111523 73 256 0.0 0.0 185.39 0.00 0.00 87 1017.9
20260902111024 74 256 0.0 0.0 185.39 0.00 0.00 87 1017.9
20260902110024 74 256 0.0 0.0 185.39 0.00 0.00 88 1017.9
20260902104024 73 256 0.0 0.0 185.39 0.00 0.00 86 1017.7
20260902103525 73 256 0.0 0.0 185.39 0.00 0.00 86 1017.7
20260902103023 73 256 0.0 0.0 185.39 0.00 0.00 86 1017.8
20260902102524 73 256 0.0 0.0 185.39 0.00 0.00 86 1017.8
20260902102023 73 256 0.0 0.0 185.39 0.00 0.00 86 1017.7
20260902100023 73 256 0.0 0.0 185.39 0.00 0.00 86 1017.8
20260902095023 73 256 0.0 0.0 185.39 0.00 0.00 86 1017.8
20260902093023 73 256 0.0 0.0 185.39 0.00 0.00 86 1017.8
20260902091523 73 256 0.0 0.0 185.39 0.00 0.00 86 1017.9
20260902090023 74 256 0.0 0.0 185.39 0.00 0.00 85 1017.7
20260902084523 74 256 0.0 0.0 185.39 0.00 0.00 85 1017.7
20260902084024 74 256 0.0 0.0 185.39 0.00 0.00 85 1017.7
20260902082523 74 256 0.0 0.0 185.39 0.00 0.00 85 1017.6
20260902081523 74 256 0.0 0.0 185.39 0.00 0.00 85 1017.6
20260902081023 74 256 0.0 0.0 185.39 0.00 0.00 85 1017.5
20260902080023 74 256 0.0 0.0 185.39 0.00 0.00 84 1017.5
20260902075025 75 256 0.0 0.0 185.39 0.00 0.00 84 1017.5
20260902074523 75 256 0.0 0.0 185.39 0.00 0.00 84 1017.5
20260902073023 75 256 0.0 0.0 185.39 0.00 0.00 84 1017.5
20260902072524 75 256 0.0 0.0 185.39 0.00 0.00 84 1017.4
20260902070523 75 256 0.0 0.0 185.39 0.00 0.00 84 1017.3
20260902070023 75 256 0.0 0.0 185.39 0.00 0.00 84 1017.4
20260902065523 75 256 0.0 0.0 185.39 0.00 0.00 84 1017.4
20260902065023 76 256 0.0 0.0 185.39 0.00 0.00 84 1017.4
20260902064024 76 256 0.0 0.0 185.39 0.00 0.00 84 1017.4
20260902063523 76 256 0.0 0.0 185.39 0.00 0.00 84 1017.5
20260902063023 76 256 0.0 0.0 185.39 0.00 0.00 84 1017.5
20260902062523 76 256 0.0 0.0 185.39 0.00 0.00 83 1017.5
20260902062024 76 256 0.0 0.0 185.39 0.00 0.00 83 1017.5
20260902061524 76 256 0.0 0.0 185.39 0.00 0.00 83 1017.5
20260902060525 76 256 0.0 0.0 185.39 0.00 0.00 83 1017.4
20260902055523 76 256 0.0 0.0 185.39 0.00 0.00 83 1017.4
20260902055024 76 256 0.0 0.0 185.39 0.00 0.00 83 1017.4
20260902054523 77 256 0.0 0.0 185.39 0.00 0.00 82 1017.3
20260902054023 77 256 0.0 0.0 185.39 0.00 0.00 82 1017.3
20260902053023 77 256 0.0 0.0 185.39 0.00 0.00 82 1017.3
20260902052523 77 256 0.0 0.0 185.39 0.00 0.00 82 1017.2
20260902052024 77 256 0.0 0.0 185.39 0.00 0.00 82 1017.2
20260902051523 77 256 0.0 0.0 185.39 0.00 0.00 82 1017.2
20260902051024 77 256 0.0 0.0 185.39 0.00 0.00 82 1017.2
20260902050524 77 256 0.0 0.0 185.39 0.00 0.00 81 1017.2
20260902050023 78 256 0.0 0.0 185.39 0.00 0.00 81 1017.1
20260902045523 78 256 0.0 0.0 185.39 0.00 0.00 81 1017.1
20260902044023 78 256 0.0 0.0 185.39 0.00 0.00 79 1017.1
20260902043023 78 256 0.0 0.0 185.39 0.00 0.00 79 1017.2
20260902042523 79 256 0.0 0.0 185.39 0.00 0.00 78 1017.2
20260902042023 79 256 0.0 0.0 185.39 0.00 0.00 78 1017.3
20260902040523 79 256 0.0 0.0 185.39 0.00 0.00 77 1017.2
20260902040023 79 256 0.0 0.0 185.39 0.00 0.00 77 1017.1
20260902034028 80 256 0.0 0.0 185.39 0.00 0.00 77 1017.0
20260902033023 79 256 0.0 0.0 185.39 0.00 0.00 77 1017.0
20260902032523 80 256 0.0 0.0 185.39 0.00 0.00 77 1017.1
20260902031523 80 256 0.0 0.0 185.39 0.00 0.00 77 1017.3
20260902031023 80 256 0.0 0.0 185.39 0.00 0.00 77 1017.2
20260902030524 80 256 0.0 0.0 185.39 0.00 0.00 77 1017.3
20260902030023 80 256 0.0 0.0 185.39 0.00 0.00 78 1017.2
20260902025524 79 256 0.0 0.0 185.39 0.00 0.00 79 1017.1
20260902023023 79 256 0.0 0.0 185.39 0.00 0.00 81 1017.3
20260902022523 79 256 0.0 0.0 185.39 0.00 0.00 81 1017.3
20260902022023 79 256 0.0 0.0 185.39 0.00 0.00 81 1017.3
20260902021523 79 256 0.0 0.0 185.39 0.00 0.00 81 1017.2
20260902021023 79 256 0.0 0.0 185.39 0.00 0.00 81 1017.2
20260902020524 80 256 0.0 0.0 185.39 0.00 0.00 81 1017.2
20260902020023 80 256 0.0 0.0 185.39 0.00 0.00 80 1017.2
20260902015523 80 256 0.0 0.0 185.39 0.00 0.00 80 1017.2
20260902014524 80 256 0.0 0.0 185.39 0.00 0.00 80 1017.2
20260902014023 80 256 0.0 0.0 185.39 0.00 0.00 79 1017.2
20260902013524 80 256 0.0 0.0 185.39 0.00 0.00 79 1017.2
20260902013023 80 256 0.0 0.0 185.39 0.00 0.00 79 1017.2
20260902012523 81 256 0.0 0.0 185.39 0.00 0.00 79 1017.1
20260902012025 81 256 0.0 0.0 185.39 0.00 0.00 79 1017.1
20260902011523 81 256 0.0 0.0 185.39 0.00 0.00 78 1017.1
20260902011023 81 256 0.0 0.0 185.39 0.00 0.00 78 1017.0
20260902010023 82 256 0.0 0.0 185.39 0.00 0.00 78 1017.0
20260902005523 82 256 0.0 0.0 185.39 0.00 0.00 77 1017.0
20260902005023 82 256 0.0 0.0 185.39 0.00 0.00 77 1017.0
20260902004522 83 256 0.0 0.0 185.39 0.00 0.00 76 1016.9
20260902004023 83 256 0.0 0.0 185.39 0.00 0.00 76 1016.9
20260902003524 83 256 0.0 0.0 185.39 0.00 0.00 75 1016.9
20260902002523 84 256 0.0 0.0 185.39 0.00 0.00 75 1017.0
20260902002023 84 256 0.0 0.0 185.39 0.00 0.00 76 1016.9
20260902001527 85 256 0.0 0.0 185.39 0.00 0.00 76 1016.9
20260902001023 85 256 0.0 0.0 185.39 0.00 0.00 77 1017.0
20260902000524 85 256 0.0 0.0 185.39 0.00 0.00 75 1017.0
20260902000023 86 256 0.0 0.0 185.39 0.00 0.00 73 1017.0
20260901235523 86 256 0.0 0.0 185.39 0.00 0.00 73 1017.0
20260901234522 87 256 0.0 0.0 185.39 0.00 0.00 72 1017.1
20260901233522 87 256 0.0 0.0 185.39 0.00 0.00 68 1017.3
20260901233023 88 256 0.0 0.0 185.39 0.00 0.00 69 1017.3
20260901232523 88 256 0.0 0.0 185.39 0.00 0.00 69 1017.4
20260901230022 90 256 0.0 0.0 185.39 0.00 0.00 60 1017.4
20260901225022 90 256 0.0 0.0 185.39 0.00 0.00 58 1017.4
20260901224522 91 256 0.0 0.0 185.39 0.00 0.00 58 1017.4
20260901224023 91 259 0.0 0.0 185.39 0.00 0.00 57 1017.4
20260901223522 91 249 0.0 0.0 185.39 0.00 0.00 57 1017.4
20260901223022 91 208 2.0 0.0 185.39 0.00 0.00 56 1017.4
20260901222523 92 239 3.0 0.0 185.39 0.00 0.00 55 1017.4
20260901220022 92 297 2.0 0.0 185.39 0.00 0.00 54 1017.4
20260901215523 92 238 2.0 0.0 185.39 0.00 0.00 55 1017.5
20260901215030 92 173 4.0 0.0 185.39 0.00 0.00 54 1017.5
20260901214522 92 284 2.0 0.0 185.39 0.00 0.00 54 1017.5
20260901213022 92 262 3.0 0.0 185.39 0.00 0.00 55 1017.5
20260901212523 92 179 0.0 0.0 185.39 0.00 0.00 55 1017.5
20260901212024 91 309 0.0 0.0 185.39 0.00 0.00 56 1017.5
20260901211523 91 267 0.0 0.0 185.39 0.00 0.00 57 1017.6
20260901211023 91 267 1.0 0.0 185.39 0.00 0.00 55 1017.6
20260901210523 91 301 1.0 0.0 185.39 0.00 0.00 55 1017.7
20260901210022 91 284 0.0 0.0 185.39 0.00 0.00 55 1017.7
20260901205523 92 120 0.0 0.0 185.39 0.00 0.00 54 1017.7
20260901205023 92 120 0.0 0.0 185.39 0.00 0.00 54 1017.7
20260901204522 92 243 1.0 0.0 185.39 0.00 0.00 53 1017.7
20260901203523 92 226 2.0 0.0 185.39 0.00 0.00 52 1017.7
20260901203022 92 246 2.0 0.0 185.39 0.00 0.00 52 1017.7
20260901201522 92 239 4.0 0.0 185.39 0.00 0.00 52 1017.5
20260901201022 92 256 1.0 0.0 185.39 0.00 0.00 51 1017.5
20260901200522 93 301 0.0 0.0 185.39 0.00 0.00 50 1017.5
20260901200022 93 257 4.0 0.0 185.39 0.00 0.00 48 1017.4
20260901195522 93 256 6.0 0.0 185.39 0.00 0.00 48 1017.5
20260901194022 92 283 2.0 0.0 185.39 0.00 0.00 52 1017.5
20260901193522 91 229 6.0 0.0 185.39 0.00 0.00 53 1017.5
20260901193022 92 198 1.0 0.0 185.39 0.00 0.00 52 1017.5
20260901192522 92 183 3.0 0.0 185.39 0.00 0.00 53 1017.6
20260901191022 91 242 0.0 0.0 185.39 0.00 0.00 54 1017.5
20260901190022 90 146 1.0 0.0 185.39 0.00 0.00 55 1017.5
20260901185522 89 235 3.0 0.0 185.39 0.00 0.00 57 1017.5
20260901185022 88 270 0.0 0.0 185.39 0.00 0.00 60 1017.5
20260901184522 87 270 0.0 0.0 185.39 0.00 0.00 65 1017.5
20260901184023 86 270 0.0 0.0 185.39 0.00 0.00 68 1017.6
20260901183522 86 270 0.0 0.0 185.39 0.00 0.00 68 1017.8
20260901183022 86 270 0.0 0.0 185.39 0.00 0.00 69 1017.9
20260901182641 86 270 0.0 0.0 185.39 0.00 0.00 70 1017.9
20260901182522 86 270 0.0 0.0 185.39 0.00 0.00 70 1017.9
20260901181522 85 270 0.0 0.0 185.39 0.00 0.00 72 1017.8
20260901181022 85 270 0.0 0.0 185.39 0.00 0.00 72 1017.8
20260901180522 85 270 0.0 0.0 185.39 0.00 0.00 71 1017.8
20260901180022 85 270 0.0 0.0 185.39 0.00 0.00 72 1018.0
20260901175522 85 270 0.0 0.0 185.39 0.00 0.00 71 1018.1
20260901174022 85 270 0.0 0.0 185.39 0.00 0.00 72 1018.3
20260901173022 84 270 0.0 0.0 185.39 0.00 0.00 72 1018.4
20260901172522 84 270 0.0 0.0 185.39 0.00 0.00 72 1018.5
20260901171522 84 270 0.0 0.0 185.39 0.00 0.00 73 1018.8
20260901171234 84 270 0.0 0.0 185.39 0.00 0.00 73 1018.8
20260901171022 84 270 0.0 0.0 185.39 0.00 0.00 73 1018.8
20260901170522 83 270 0.0 0.0 185.39 0.00 0.00 72 1018.8
20260901170022 83 270 0.0 0.0 185.39 0.00 0.00 72 1018.9
20260901165022 83 270 0.0 0.0 185.39 0.00 0.00 72 1018.9
20260901164522 83 270 0.0 0.0 185.39 0.00 0.00 72 1019.0
20260901163022 83 270 0.0 0.0 185.39 0.00 0.00 72 1019.2
20260901162522 82 270 0.0 0.0 185.39 0.00 0.00 73 1019.1